Погода в Напасе

Погода в Напасе : погода сейчас, прогноз погоды и архив. Всё, что Вы хотите узнать о погоде в Напасе!

Хотите узнать прогноз погоды в Напасе? Тогда Вам сюда: Погода в Напасе

Поиск расширенной информации на нашем сайте:

Другие новости

Новости СМИ2

Главная страница сайта

Новости сайта

03.07.2017

Напоминаем, что на нашем специализированном сайте Метеоцентр.Азия вы можете получить высокодетализированные автоматические прогнозы погоды по пунктам России, СНГ и мира в авиационном формате (включающие направление и скорость ветра, видимость, явления погоды, количество и форму облачности, нижнюю и верхнюю границу облачности).


Погода в Напасе - сегодня

Время (UTC), дата Ветер
(°,м/с) 
Видим.   Явления Облачность Т
(°С)
Тd
(°С)
f(%) Тe
(°С)
Pmin
(гПа)
dP
(гПа)
Po
(мм)
O2
(г/м3)
Тmin Tmax R s Состояние
почвы
00 20.04.18 190 (Ю) 4{10}  20000 м    10/0 средняя 
[As op]
-2.2 -10.8 52 -5  1008.4  -0.7  749  305  -4.5      47  равномерный
сухой снег
100% 
03 20.04.18 180 (Ю) 4{11}  20000 м    10/0 верхняя 
[Cs]
-0.2 -8 56 -3  1007.6  -0.7  749  303           
12 20.04.18 190 (Ю) 8-13{17}  10 км  слаб. ливневой дождь  10/10 240 м кучево-дожд. 
[Cb cap]
+6 -2.9 53 +3  1004.5  0.2  746  295    +6.9  0.0     
00 21.04.18 180 (Ю) 4{10}  4000 м  слаб. ливневой дождь  10/10 210 м кучево-дожд. 
[Cb cap]
+3.4 +2.7 95 +1  998.4  -1.6  742  295  +0.4    41  равномерный
мокрый или
старый снег
100% 
12 21.04.18 350 (С) 3{10}  4000 м  слаб. ливневой снег  10/10 150 м кучево-дожд. 
[Cb cap]
+1 +0.2 94 -1  1001.2  2.5  744  299    +6     
00 22.04.18 020 (С) 4000 м  слаб. ливневой снег  10/10 150 м кучево-дожд. 
[Cb cap]
-4.6 -5.9 91 -6  1002.4  745  306  -4.6    46  равномерный
сухой снег
100% 
12 22.04.18 270 (З) 20000 м  {ливн. осадки}  4/3 300 м верхняя 
[Cu hum|Ci sp]
-1.2 -7.4 63 -3  1009.3  4.4  750  304    -1.2     
15 22.04.18 300 (СЗ) 20000 м    10/0 верхняя 
[Ci sp]
-5.3 -11.3 63 -7  1013.7  4.2  753  310           
18 22.04.18 270 (З) 20000 м    10/0 верхняя 
[Ci sp]
-9.3 -10.9 88 -9  1017.2  3.2  755  316           
21 22.04.18 тихо ()   20000 м    ясно 
-11.3 -12.6 90 -11  1018.4  1.1  756  319           
00 23.04.18 130 (ЮВ) 20000 м    10/0 средняя, верхняя 
[Ac lent|Ci sp]
-8.8 -10.8 85 -9  1020.3  1.5  758  317  -9.6      48  равномерный
сухой снег
100% 
03 23.04.18 050 (СВ) 20000 м    10/0 средняя, верхняя 
[Ac und|Ci sp]
-3.6 -13.8 45 -6  1020.7  0.6  758  311           
06 23.04.18 040 (СВ) 3{10}  20000 м    8/0 средняя, верхняя 
[Ac trans|Cc]
-0.6 -10.5 47 -2  1019.8  -0.7  758  307           
09 23.04.18 040 (СВ) 4{11}  20000 м    3/0 средняя, верхняя 
[Ac trans|Ci sp]
+0.3 -9 50 -2  1017.9  -1.9  756  305           
12 23.04.18 040 (СВ) 4{11}  20000 м    10/0 средняя, верхняя 
[Ac und|Cs]
-0.2 -7.4 58 -3  1016.9  -1  755  305    +0.4       
15 23.04.18 020 (С) 3{11}  20000 м    10/0 верхняя 
[Ci sp]
-2.6 -9 61 -5  1015  -1.3  754  308           
18 23.04.18 020 (С) 20000 м    4/0 верхняя 
[Ci fib]
-4.8 -9.2 71 -6  1015.6  -0.1  754  310           
21 23.04.18 000 (С) 32  20000 м    3/0 верхняя 
[Ci fib]
-7.1 -10 80 -18  1016.1  0.4  755  313           
00 24.04.18 010 (С) 20000 м    10/0 верхняя 
[Ci fib]
-8.4 -10.3 86 -8  1016.4  0.3  755  315  -9      48  равномерный
сухой снег
100% 
03 24.04.18 180 (Ю) 20000 м    10/0 верхняя 
[Ci fib]
-2.3 -9 60 -2  1016.8  0.5  755  308           
06 24.04.18 190 (Ю) 20000 м    10/0 верхняя 
[Ci sp]
+3.9 -6.9 45 +3  1015.3  -1.1  754  300           
09 24.04.18 170 (Ю) 4{10}  20000 м    10/0 верхняя 
[Cs]
+5.5 -6.1 43 +4  1013.4  -1.9  753  298           
12 24.04.18 160 (Ю) 3{10}  20000 м    10/0 средняя, верхняя 
[Ac und|Cs]
+4.8 -0.8 67 +4  1011.5  -1.9  752  298    +5.9       
15 24.04.18 130 (ЮВ) 4{10}  20000 м    10/4 600 м средняя, верхняя 
[Sc|Ac und|Ci sp]
+4.2 -0.3 72 +2  1008.3  -3.2  749  297           
00 25.04.18 120 (ЮВ) 4000 м  дымка{ливн. осадки}  10/10 700 м 
[Sc]
+2.8 +1.5 91 +1  1001.3  -3.2  744  296  +2    43  равномерный
мокрый или
старый снег
100% 
Время (UTC), дата Ветер
(°,м/с) 
Видим.   Явления Облачность Т
(°С)
Тd
(°С)
f(%) Тe
(°С)
Pmin
(гПа)
dP
(гПа)
Po
(мм)
O2
(г/м3)
Тmin Tmax R s Состояние
почвы

Для получения пояснительной информации подведите курсор к названию столбца.

ПОГОДА в Напасе - архив

Всё, что Вы хотите узнать о погоде в Напасе - удобно и подробно!

Выберите нужную дату (начиная с 1 января 2015* года) и нажмите кнопку "Найти".
Будут отображены архивные сводки погоды по пункту Напас, начиная с указанной даты.


Отображать данные в формате CSV (для использования в таблицах Excel)


Внимание! Наш архив погоды предназначен исключительно для личного некоммерческого использования в познавательных целях. Если Вам необходимы официальные справки о состоянии погоды (для производственных, юридических, коммерческих и т.п. целей), обращайтесь в органы Росгидромета.

*Примечание: данная дата относится к архиву по метеостанциям СССР (Россия, СНГ, Балтия).
Архив по метеостанциям Зарубежной Европы и Азии (кроме Китая) хранится 10 дней, по другим регионам земного шара (Китай, Африка, Америка, Австралия, Океания) - 1 день.

Напас - район местоположения метеостанции


Название, широта, долгота, высота метеостанции:
Напас 59.9°ш. 81.9°д. 76 м над ур. моря [Российская Федерация]

Дополнительная информация

В oтличие oт бoльшинства пoгoдных сайтoв мы публикуем пoдрoбную метеoинфoрмацию в детальнoм прoфессиoнальнoм фoрмате.

Характеристики температуры и влажнoсти вoздуха измеряются на высoте 2 м в тени вдали oт зданий и деревьев.
Скoрoсть ветра измеряется на высoте 10 м (на урoвне рoста челoвека скoрoсть ветра ниже в 1.5-2 раза). Если метеoстанция нахoдится в гoрoде или в лесу, тo скoрoсть ветра занижена на 2-4 м/с пo сравнению с oткрытым местoм. Скoрoсть ветра над акватoриями крупных рек и oзёр, а также на вершинах хoлмoв на 2-5 м/с выше, чем в oбычных услoвиях.
Атмoсфернoе давление в разных тoчках местнoсти мoжет значительнo oтличаться oт давления на метеoстанции, в зависимoсти oт услoвий рельефа (при пoдъёме на 10 м давление пoнижается примернo на 1 мм рт.ст.).